Weather History for Raleigh-Durham Airport, NC

Change the Weather History Date:

Sunday, February 9, 2014

  Actual Average Record
Temperature  
Mean Temperature 42 °F 43 °F  
Max Temperature 55 °F 54 °F 74 °F (1994)
Min Temperature 29 °F 33 °F 9 °F (1895)
Degree Days  
Heating Degree Days 23 22  
Month to date heating degree days 188 201  
Since 1 July heating degree days 2292 2198  
Cooling Degree Days 0 0  
Month to date cooling degree days 0 0  
Year to date cooling degree days 0 0  
Moisture  
Dew Point 32 °F    
Average Humidity 66    
Maximum Humidity 89    
Minimum Humidity 43    
Precipitation  
Precipitation 0.00 in 0.10 in 2.29 in (1939)
Month to date precipitation 0.72 0.99  
Year to date precipitation 2.68 4.49  
Snow  
Snow 0.00 in 0.00 in 9.10 in (1967)
Month to date snowfall 0.0 0.7  
Since 1 July snowfall 1.9 4.3  
Snow Depth 0.00 in    
Sea Level Pressure  
Sea Level Pressure 30.09 in    
Wind  
Wind Speed 3 mph (SSE)    
Max Wind Speed 15 mph    
Max Gust Speed 20 mph    
Visibility 8 miles    
Events      
T = Trace of Precipitation, MM = Missing Value Source: NWS Daily Summary

Daily Weather History Graph

Daily Weather History Graph

Search for Another Location

Airport:

Trip Planner

Search our weather history database for the weather conditions in past years. The results will help you decide how hot, cold, wet, or windy it might be!

Date:

Astronomy

Feb. 09, 2014 Rise Set
Actual Time 7:08 AM EST 5:50 PM EST
Civil Twilight 6:42 AM EST 6:17 PM EST
Nautical Twilight 6:11 AM EST 6:47 PM EST
Astronomical Twilight 5:41 AM EST 7:17 PM EST
Moon 1:32 PM EST (2/9) 3:08 AM EST (2/9)
Length of Visible Light 11h 35m
Length of Day
10h 42m
Waxing Gibbous, 77% of the Moon is Illuminated
Feb 9
Waxing Gibbous
Feb 14
Full
Feb 22
Last Quarter
Mar 1
New
Mar 8
First Quarter

Hourly Weather History & Observations

Time (EST) Temp. Windchill Dew Point Humidity Pressure Visibility Wind Dir Wind Speed Gust Speed Precip Events Conditions
12:51 AM 35.1 °F - 28.9 °F 78% 30.18 in 8.0 mi Calm Calm - N/A   Mostly Cloudy
1:51 AM 34.0 °F - 28.0 °F 79% 30.17 in 8.0 mi Calm Calm - N/A   Mostly Cloudy
2:51 AM 30.9 °F - 27.0 °F 85% 30.17 in 8.0 mi Calm Calm - N/A   Scattered Clouds
3:51 AM 30.9 °F 27.5 °F 27.0 °F 85% 30.13 in 7.0 mi East 3.5 mph - N/A   Partly Cloudy
4:51 AM 30.0 °F - 26.1 °F 85% 30.14 in 7.0 mi Calm Calm - N/A   Scattered Clouds
5:51 AM 30.0 °F - 26.1 °F 85% 30.14 in 7.0 mi Calm Calm - N/A   Mostly Cloudy
6:51 AM 33.1 °F - 28.9 °F 85% 30.15 in 6.0 mi Calm Calm - N/A   Mostly Cloudy
7:51 AM 33.1 °F - 28.9 °F 85% 30.16 in 6.0 mi Calm Calm - N/A   Mostly Cloudy
8:51 AM 34.0 °F 31.0 °F 30.0 °F 85% 30.19 in 5.0 mi SE 3.5 mph - N/A   Overcast
9:51 AM 36.0 °F 32.1 °F 30.0 °F 79% 30.19 in 7.0 mi SE 4.6 mph - N/A   Overcast
10:51 AM 41.0 °F 36.4 °F 30.9 °F 67% 30.15 in 7.0 mi SE 6.9 mph - N/A   Mostly Cloudy
11:51 AM 42.1 °F 37.1 °F 30.9 °F 65% 30.13 in 7.0 mi SSE 8.1 mph - N/A   Overcast
12:51 PM 44.1 °F 40.1 °F 30.9 °F 60% 30.08 in 10.0 mi South 6.9 mph - N/A   Overcast
1:51 PM 48.9 °F - 32.0 °F 52% 30.06 in 10.0 mi SW 9.2 mph - N/A   Mostly Cloudy
2:51 PM 53.1 °F - 34.0 °F 48% 30.03 in 10.0 mi SSW 11.5 mph 18.4 mph N/A   Mostly Cloudy
3:51 PM 55.0 °F - 34.0 °F 45% 29.99 in 10.0 mi South 8.1 mph - N/A   Scattered Clouds
4:51 PM 54.0 °F - 36.0 °F 51% 29.98 in 10.0 mi SSW 11.5 mph - N/A   Mostly Cloudy
5:51 PM 53.1 °F - 37.0 °F 55% 29.98 in 10.0 mi Calm Calm - N/A   Mostly Cloudy
6:51 PM 50.0 °F - 37.0 °F 61% 30.01 in 10.0 mi Calm Calm - N/A   Mostly Cloudy
7:51 PM 48.0 °F - 37.0 °F 66% 30.02 in 10.0 mi Calm Calm - N/A   Mostly Cloudy
8:51 PM 46.0 °F - 37.0 °F 71% 30.02 in 10.0 mi Calm Calm - N/A   Mostly Cloudy
9:51 PM 48.0 °F - 37.0 °F 66% 30.05 in 10.0 mi Calm Calm - N/A   Overcast
10:51 PM 46.0 °F - 36.0 °F 68% 30.05 in 10.0 mi Calm Calm - N/A   Mostly Cloudy
11:51 PM 42.1 °F - 36.0 °F 79% 30.04 in 10.0 mi Calm Calm - N/A   Partly Cloudy